GW0821 Weather Reports


time (UTC)temp
C
wind
direction
speed
KPH
gust
KPH
rain 1hr
cm
rain 24hr
cm
rain mn
cm
humidity
%
barometer
mb
20260506174550 16 219 3.2 16.1 0.00 0.25 0.00 63 1009.7
20260506173043 17 207 4.8 16.1 0.00 0.25 0.00 60 1009.6
20260506171547 17 233 6.4 17.7 0.00 0.25 0.00 56 1009.4
20260506170053 18 203 3.2 16.1 0.00 0.25 0.00 54 1009.4
20260506164539 18 258 3.2 11.3 0.00 1.02 0.00 54 1009.4
20260506163057 17 192 4.8 14.5 0.00 1.02 0.00 54 1009.3
20260506161545 17 230 8.0 17.7 0.00 1.02 0.00 53 1009.2
20260506160047 18 179 9.7 22.5 0.00 1.02 0.00 53 1009.1
20260506154606 18 148 9.7 20.9 0.00 1.12 0.00 53 1009.0
20260506153054 18 203 8.0 24.1 0.00 1.12 0.00 53 1008.9
20260506151541 18 161 8.0 24.1 0.00 1.12 0.00 52 1009.0
20260506150038 18 86 8.0 22.5 0.00 1.12 0.00 52 1008.9
20260506144538 18 214 9.7 19.3 0.00 1.12 0.00 52 1009.1
20260506143058 18 171 6.4 24.1 0.00 1.12 0.00 53 1009.2
20260506141542 18 170 8.0 16.1 0.00 1.12 0.00 55 1009.3
20260506140049 18 196 6.4 19.3 0.00 1.12 0.00 55 1009.7
20260506134546 18 205 4.8 17.7 0.00 1.12 0.00 56 1009.7
20260506133045 18 216 4.8 11.3 0.00 1.12 0.00 52 1009.8
20260506131543 18 306 3.2 11.3 0.00 1.12 0.00 52 1009.7
20260506130041 17 323 1.6 6.4 0.00 1.12 0.00 56 1009.7
20260506124541 17 143 3.2 8.0 0.00 1.12 0.00 54 1009.8
20260506123050 17 142 4.8 14.5 0.00 1.12 0.00 57 1010.0
20260506121543 17 181 8.0 16.1 0.00 1.12 0.00 56 1010.1
20260506120052 17 146 8.0 16.1 0.00 1.12 0.00 56 1010.0
20260506114557 17 196 6.4 16.1 0.00 1.12 0.00 56 1010.0
20260506113046 17 269 4.8 9.7 0.00 1.12 0.00 57 1010.0
20260506111551 17 199 3.2 11.3 0.00 1.12 0.00 59 1010.1
20260506110055 17 163 3.2 9.7 0.00 1.12 0.00 57 1010.2
20260506104550 17 146 0.0 8.0 0.00 1.12 0.00 54 1010.2
20260506103042 17 108 3.2 9.7 0.00 1.12 0.00 55 1010.4
20260506101547 16 201 1.6 11.3 0.00 1.12 0.00 57 1010.6
20260506100047 16 280 1.6 9.7 0.00 1.12 0.00 55 1010.9
20260506094605 16 198 3.2 11.3 0.00 1.12 0.00 60 1010.9
20260506093057 16 239 3.2 11.3 0.00 1.12 0.00 63 1011.0
20260506091544 16 142 4.8 8.0 0.00 1.12 0.00 63 1010.9
20260506090049 15 93 0.0 6.4 0.00 1.12 0.00 70 1010.8
20260506084549 14 23 1.6 6.4 0.00 1.12 0.00 72 1010.8
20260506083047 15 0 0.0 1.6 0.00 1.12 0.00 73 1010.8
20260506081550 13 115 0.0 4.8 0.00 1.12 0.00 78 1010.6
20260506073050 11 312 0.0 6.4 0.00 1.12 0.00 89 1010.6
20260506071542 11 0 0.0 0.0 0.00 1.12 0.00 97 1010.5
20260506061543 7 0 0.0 0.0 0.00 1.12 0.00 98 1010.4
20260506044552 5 0 0.0 1.6 0.00 1.12 0.00 97 1010.0
20260506043050 5 0 0.0 0.0 0.00 1.12 0.00 97 1010.1
20260506041548 5 0 0.0 0.0 0.00 1.12 0.00 97 1010.0
20260506040059 5 0 0.0 0.0 0.00 1.12 0.00 97 1009.9
20260506034553 5 0 0.0 0.0 0.00 1.12 0.00 97 1009.8
20260506033046 6 0 0.0 0.0 0.00 1.12 0.00 97 1009.7
20260506031559 6 0 0.0 0.0 0.00 1.12 0.00 97 1009.7
20260506030051 6 0 0.0 0.0 0.00 1.12 0.00 97 1009.7
20260506024552 6 0 0.0 1.6 0.00 1.12 0.00 97 1009.7
20260506023044 6 0 0.0 0.0 0.00 1.12 0.00 97 1009.7
20260506021544 6 0 0.0 0.0 0.00 1.12 0.00 97 1009.6
20260506020049 6 0 0.0 0.0 0.00 1.12 0.00 97 1009.5
20260506014543 6 0 0.0 0.0 0.00 1.12 0.00 97 1009.6
20260506013048 6 0 0.0 1.6 0.00 1.12 0.00 97 1009.5
20260506011546 6 0 0.0 0.0 0.00 1.12 0.00 97 1009.5
20260506010047 7 0 0.0 1.6 0.00 1.12 0.00 96 1009.6
20260506004543 7 0 0.0 0.0 0.00 1.14 0.00 96 1009.8
20260506003042 7 0 0.0 0.0 0.00 1.14 0.00 96 1009.9
20260506001549 7 0 0.0 0.0 0.00 1.14 0.00 96 1009.9
20260506000047 7 0 0.0 0.0 0.00 1.14 0.00 96 1009.9
20260505234556 7 0 0.0 0.0 0.00 1.14 0.00 96 1010.1
20260505233043 8 0 0.0 0.0 0.00 1.14 0.00 96 1010.0
20260505231551 8 0 0.0 0.0 0.00 1.14 0.00 96 1010.1
20260505230042 8 0 0.0 0.0 0.00 1.14 0.00 96 1010.1
20260505224541 8 0 0.0 0.0 0.00 1.14 0.00 96 1010.2
20260505223049 9 0 0.0 0.0 0.00 1.14 0.00 96 1010.4
20260505221539 9 0 0.0 1.6 0.00 1.12 0.00 96 1010.3
20260505220046 9 0 0.0 1.6 0.00 1.12 0.00 96 1010.4
20260505214550 9 281 1.6 6.4 0.00 1.12 1.12 96 1010.6
20260505213043 8 0 0.0 4.8 0.00 1.12 1.12 96 1010.9
20260505211541 8 295 0.0 1.6 0.00 1.12 1.12 96 1011.0
20260505210046 8 0 0.0 0.0 0.00 1.12 1.12 96 1010.6
20260505204540 8 0 0.0 0.0 0.00 1.17 1.12 95 1010.3
20260505203044 8 0 0.0 0.0 0.00 1.17 1.12 95 1010.1
20260505201542 9 0 0.0 0.0 0.00 1.17 1.12 95 1009.7
20260505200050 9 0 0.0 1.6 0.05 1.17 1.12 94 1009.5
20260505194540 10 0 0.0 1.6 0.08 1.22 1.12 94 1009.1
20260505193045 10 246 0.0 8.0 0.08 1.22 1.12 95 1009.2
20260505191543 10 0 3.2 9.7 0.08 1.22 1.12 95 1009.6
20260505190044 10 101 0.0 4.8 0.03 1.14 1.07 95 1010.2
20260505184540 10 219 1.6 3.2 0.00 1.12 1.04 95 1009.7
20260505183040 10 20 1.6 8.0 0.00 1.12 1.02 95 1009.6
20260505181550 10 0 0.0 1.6 0.03 1.12 1.02 95 1009.3
20260505180043 10 0 1.6 9.7 0.13 1.12 1.02 94 1009.2